Simultaneous Nadir Overpasses (SNOs) Predictions

Prediction of SNOs between AQUA and GOES-15 Satellite Orbit:

Table of predicted SNOs for the next 14.0 days since TLE Epoch: 6/27/2015
Index Date Time (AQUA) AQUA Lat,Lon GOES-15 Lat,Lon Distance(km) Time Diff (sec)
1 06/27/2015 10:26:31 -0.50,-132.71 -0.08,-134.68 224.76 80
2 06/27/2015 22:47:54 -0.58,-137.90 0.10,-134.68 365.84 80
3 06/29/2015 22:35:41 0.09,-134.95 0.10,-134.75 22.04 80
4 07/01/2015 22:23:28 0.70,-131.98 0.10,-134.81 321.56 80
5 07/02/2015 10:44:42 0.38,-137.14 -0.11,-134.84 261.59 80
6 07/04/2015 10:32:28 -0.25,-134.18 -0.11,-134.89 81.10 80
7 07/06/2015 10:20:14 -0.89,-131.21 -0.11,-134.94 423.40 80
8 07/06/2015 22:41:38 -0.18,-136.41 0.13,-134.93 167.51 80
9 07/08/2015 22:29:24 0.47,-133.45 0.13,-134.98 174.18 80
10 07/09/2015 10:50:39 0.60,-138.61 -0.14,-135.00 409.88 80




NCC Satellite Simultaneous Nadir Overpasses (SNOs) Prediction Service
